Time,TemperatureF,DewpointF,PressureIn,WindDirection,WindDirectionDegrees,WindSpeedMPH,WindSpeedGustMPH,Humidity,HourlyPrecipIn,Conditions,Clouds,dailyrainin,SoftwareType,DateUTC
2013-02-01 00:00:00,36.3,23.8,30.06,SSE,158,0.0,0.0,60,0.00,,---,0.00,VWS V14.01,2013-02-01 05:00:00,
2013-02-01 00:01:00,38.8,23.2,30.09,WSW,248,0.0,0.0,53,0.00,,---,0.00,VWS V14.01,2013-02-01 05:01:00,
2013-02-01 00:05:00,36.0,23.8,30.06,SSE,158,0.0,0.0,61,0.00,,---,0.00,VWS V14.01,2013-02-01 05:05:00,
2013-02-01 00:06:00,38.5,22.9,30.09,WSW,248,0.0,0.0,53,0.00,,---,0.00,VWS V14.01,2013-02-01 05:06:00,
2013-02-01 00:10:00,36.1,24.4,30.06,South,180,0.0,0.0,62,0.00,,---,0.00,VWS V14.01,2013-02-01 05:10:00,
2013-02-01 00:11:00,38.1,22.5,30.09,WSW,248,0.0,0.0,53,0.00,,---,0.00,VWS V14.01,2013-02-01 05:11:00,
2013-02-01 00:12:00,38.1,22.5,30.09,WSW,248,0.0,0.0,53,0.00,,---,0.00,VWS V14.01,2013-02-01 05:12:00,
2013-02-01 00:15:00,36.1,24.4,30.06,South,180,0.0,0.0,62,0.00,,---,0.00,VWS V14.01,2013-02-01 05:15:00,
2013-02-01 00:17:00,37.8,22.6,30.06,WSW,248,0.0,0.0,54,0.00,,---,0.00,VWS V14.01,2013-02-01 05:17:00,
2013-02-01 00:20:00,36.0,24.2,30.06,South,180,0.0,0.0,62,0.00,,---,0.00,VWS V14.01,2013-02-01 05:20:00,
2013-02-01 00:22:00,37.4,22.3,30.06,WSW,248,0.0,0.0,54,0.00,,---,0.00,VWS V14.01,2013-02-01 05:22:00,
2013-02-01 00:25:00,35.6,24.3,30.06,South,180,0.0,0.0,63,0.00,,---,0.00,VWS V14.01,2013-02-01 05:25:00,
2013-02-01 00:27:00,37.6,22.5,30.06,WSW,248,0.0,0.0,54,0.00,,---,0.00,VWS V14.01,2013-02-01 05:27:00,
2013-02-01 00:30:00,35.1,24.1,30.06,South,180,0.0,0.0,64,0.00,,---,0.00,VWS V14.01,2013-02-01 05:30:00,
2013-02-01 00:32:00,37.4,22.7,30.06,SSE,158,0.0,0.0,55,0.00,,---,0.00,VWS V14.01,2013-02-01 05:32:00,
2013-02-01 00:35:00,35.2,24.3,30.06,South,180,0.0,0.0,64,0.00,,---,0.00,VWS V14.01,2013-02-01 05:35:00,
2013-02-01 00:37:00,37.6,22.9,30.06,SSE,158,0.0,0.0,55,0.00,,---,0.00,VWS V14.01,2013-02-01 05:37:00,
2013-02-01 00:40:00,35.1,24.5,30.06,South,180,0.0,0.0,65,0.00,,---,0.00,VWS V14.01,2013-02-01 05:40:00,
2013-02-01 00:42:00,37.2,23.8,30.06,SSE,158,0.0,0.0,58,0.00,,---,0.00,VWS V14.01,2013-02-01 05:42:00,
2013-02-01 00:45:00,35.1,24.5,30.06,South,180,0.0,0.0,65,0.00,,---,0.00,VWS V14.01,2013-02-01 05:45:00,
2013-02-01 00:47:00,37.2,23.8,30.06,SSE,158,0.0,0.0,58,0.00,,---,0.00,VWS V14.01,2013-02-01 05:47:00,
2013-02-01 00:50:00,34.9,24.7,30.06,South,180,0.0,0.0,66,0.00,,---,0.00,VWS V14.01,2013-02-01 05:50:00,
2013-02-01 00:52:00,37.0,24.5,30.06,SSE,158,0.0,0.0,60,0.00,,---,0.00,VWS V14.01,2013-02-01 05:52:00,
2013-02-01 00:55:00,34.7,24.5,30.06,South,180,0.0,0.0,66,0.00,,---,0.00,VWS V14.01,2013-02-01 05:55:00,
2013-02-01 00:57:00,36.9,24.3,30.06,SSE,158,0.0,0.0,60,0.00,,---,0.00,VWS V14.01,2013-02-01 05:57:00,
2013-02-01 01:00:00,34.5,24.4,30.06,South,180,0.0,0.0,66,0.00,,---,0.00,VWS V14.01,2013-02-01 06:00:00,
2013-02-01 01:02:00,36.3,23.8,30.06,SSE,158,0.0,0.0,60,0.00,,---,0.00,VWS V14.01,2013-02-01 06:02:00,
2013-02-01 01:05:00,34.7,24.9,30.06,South,180,0.0,0.0,67,0.00,,---,0.00,VWS V14.01,2013-02-01 06:05:00,
2013-02-01 01:07:00,36.0,24.2,30.06,SSE,158,0.0,0.0,62,0.00,,---,0.00,VWS V14.01,2013-02-01 06:07:00,
2013-02-01 01:10:00,35.2,25.4,30.06,South,180,0.0,0.0,67,0.00,,---,0.00,VWS V14.01,2013-02-01 06:10:00,
2013-02-01 01:12:00,36.3,24.6,30.06,South,180,0.0,0.0,62,0.00,,---,0.00,VWS V14.01,2013-02-01 06:12:00,
2013-02-01 01:15:00,35.1,25.9,30.06,South,180,0.0,0.0,69,0.00,,---,0.00,VWS V14.01,2013-02-01 06:15:00,
2013-02-01 01:17:00,36.0,24.2,30.06,South,180,0.0,0.0,62,0.00,,---,0.00,VWS V14.01,2013-02-01 06:17:00,
2013-02-01 01:20:00,34.5,25.4,30.06,South,180,0.0,0.0,69,0.00,,---,0.00,VWS V14.01,2013-02-01 06:20:00,
2013-02-01 01:22:00,36.0,24.2,30.06,South,180,0.0,0.0,62,0.00,,---,0.00,VWS V14.01,2013-02-01 06:22:00,
2013-02-01 01:25:00,34.3,25.6,30.06,South,180,0.0,0.0,70,0.00,,---,0.00,VWS V14.01,2013-02-01 06:25:00,
2013-02-01 01:27:00,35.4,24.1,30.06,South,180,0.0,0.0,63,0.00,,---,0.00,VWS V14.01,2013-02-01 06:27:00,
2013-02-01 01:30:00,34.0,25.2,30.06,South,180,0.0,0.0,70,0.00,,---,0.00,VWS V14.01,2013-02-01 06:30:00,
2013-02-01 01:32:00,35.1,24.1,30.06,South,180,0.0,0.0,64,0.00,,---,0.00,VWS V14.01,2013-02-01 06:32:00,
2013-02-01 01:35:00,33.6,24.9,30.06,South,180,0.0,0.0,70,0.00,,---,0.00,VWS V14.01,2013-02-01 06:35:00,
2013-02-01 01:37:00,35.2,24.3,30.06,South,180,0.0,0.0,64,0.00,,---,0.00,VWS V14.01,2013-02-01 06:37:00,
2013-02-01 01:40:00,33.4,24.7,30.06,South,180,0.0,0.0,70,0.00,,---,0.00,VWS V14.01,2013-02-01 06:40:00,
2013-02-01 01:42:00,35.1,24.5,30.06,South,180,0.0,0.0,65,0.00,,---,0.00,VWS V14.01,2013-02-01 06:42:00,
2013-02-01 01:45:00,33.4,25.1,30.06,South,180,0.0,0.0,71,0.00,,---,0.00,VWS V14.01,2013-02-01 06:45:00,
2013-02-01 01:47:00,35.1,24.5,30.06,South,180,0.0,0.0,65,0.00,,---,0.00,VWS V14.01,2013-02-01 06:47:00,
2013-02-01 01:50:00,33.6,25.2,30.06,South,180,0.0,0.0,71,0.00,,---,0.00,VWS V14.01,2013-02-01 06:50:00,
2013-02-01 01:52:00,34.9,24.7,30.06,South,180,0.0,0.0,66,0.00,,---,0.00,VWS V14.01,2013-02-01 06:52:00,
2013-02-01 01:55:00,34.0,25.6,30.06,South,180,0.0,0.0,71,0.00,,---,0.00,VWS V14.01,2013-02-01 06:55:00,
2013-02-01 01:57:00,34.5,24.4,30.06,South,180,0.0,0.0,66,0.00,,---,0.00,VWS V14.01,2013-02-01 06:57:00,
2013-02-01 02:00:00,33.6,25.2,30.06,South,180,0.0,0.0,71,0.00,,---,0.00,VWS V14.01,2013-02-01 07:00:00,
2013-02-01 02:02:00,34.5,24.4,30.06,South,180,0.0,0.0,66,0.00,,---,0.00,VWS V14.01,2013-02-01 07:02:00,
2013-02-01 02:05:00,33.4,25.4,30.06,South,180,0.0,0.0,72,0.00,,---,0.00,VWS V14.01,2013-02-01 07:05:00,
2013-02-01 02:07:00,34.9,24.7,30.06,South,180,0.0,0.0,66,0.00,,---,0.00,VWS V14.01,2013-02-01 07:07:00,
2013-02-01 02:10:00,33.3,25.2,30.06,South,180,0.0,0.0,72,0.00,,---,0.00,VWS V14.01,2013-02-01 07:10:00,
2013-02-01 02:12:00,35.2,26.1,30.06,South,180,0.0,0.0,69,0.00,,---,0.00,VWS V14.01,2013-02-01 07:12:00,
2013-02-01 02:15:00,32.7,24.7,30.09,South,180,0.0,0.0,72,0.00,,---,0.00,VWS V14.01,2013-02-01 07:15:00,
2013-02-01 02:17:00,35.1,25.9,30.06,South,180,0.0,0.0,69,0.00,,---,0.00,VWS V14.01,2013-02-01 07:17:00,
2013-02-01 02:20:00,33.1,25.0,30.09,South,180,0.0,0.0,72,0.00,,---,0.00,VWS V14.01,2013-02-01 07:20:00,
2013-02-01 02:22:00,34.3,25.2,30.06,South,180,0.0,0.0,69,0.00,,---,0.00,VWS V14.01,2013-02-01 07:22:00,
2013-02-01 02:25:00,32.9,25.2,30.09,South,180,0.0,0.0,73,0.00,,---,0.00,VWS V14.01,2013-02-01 07:25:00,
2013-02-01 02:27:00,34.3,25.6,30.06,South,180,0.0,0.0,70,0.00,,---,0.00,VWS V14.01,2013-02-01 07:27:00,
2013-02-01 02:30:00,32.7,25.0,30.06,South,180,0.0,0.0,73,0.00,,---,0.00,VWS V14.01,2013-02-01 07:30:00,
2013-02-01 02:32:00,33.8,24.7,30.06,South,180,0.0,0.0,69,0.00,,---,0.00,VWS V14.01,2013-02-01 07:32:00,
2013-02-01 02:35:00,33.3,25.6,30.06,South,180,0.0,0.0,73,0.00,,---,0.00,VWS V14.01,2013-02-01 07:35:00,
2013-02-01 02:37:00,33.6,24.9,30.06,South,180,0.0,0.0,70,0.00,,---,0.00,VWS V14.01,2013-02-01 07:37:00,
2013-02-01 02:40:00,33.3,25.6,30.06,South,180,0.0,0.0,73,0.00,,---,0.00,VWS V14.01,2013-02-01 07:40:00,
2013-02-01 02:42:00,33.3,24.5,30.06,South,180,0.0,0.0,70,0.00,,---,0.00,VWS V14.01,2013-02-01 07:42:00,
2013-02-01 02:45:00,32.9,25.2,30.06,South,180,0.0,0.0,73,0.00,,---,0.00,VWS V14.01,2013-02-01 07:45:00,
2013-02-01 02:47:00,33.4,24.7,30.06,South,180,0.0,0.0,70,0.00,,---,0.00,VWS V14.01,2013-02-01 07:47:00,
2013-02-01 02:50:00,32.9,25.5,30.06,South,180,0.0,0.0,74,0.00,,---,0.00,VWS V14.01,2013-02-01 07:50:00,
2013-02-01 02:52:00,33.8,25.4,30.06,South,180,0.0,0.0,71,0.00,,---,0.00,VWS V14.01,2013-02-01 07:52:00,
2013-02-01 02:55:00,33.4,26.4,30.06,South,180,0.0,0.0,75,0.00,,---,0.00,VWS V14.01,2013-02-01 07:55:00,
2013-02-01 02:57:00,34.0,25.6,30.06,South,180,0.0,0.0,71,0.00,,---,0.00,VWS V14.01,2013-02-01 07:57:00,
2013-02-01 03:00:00,33.1,25.7,30.06,South,180,0.0,0.0,74,0.00,,---,0.00,VWS V14.01,2013-02-01 08:00:00,
2013-02-01 03:02:00,33.4,25.1,30.06,South,180,0.0,0.0,71,0.00,,---,0.00,VWS V14.01,2013-02-01 08:02:00,
2013-02-01 03:05:00,33.1,25.7,30.06,South,180,0.0,0.0,74,0.00,,---,0.00,VWS V14.01,2013-02-01 08:05:00,
2013-02-01 03:07:00,33.3,25.2,30.06,South,180,0.0,0.0,72,0.00,,---,0.00,VWS V14.01,2013-02-01 08:07:00,
2013-02-01 03:10:00,33.1,25.7,30.06,South,180,0.0,0.0,74,0.00,,---,0.00,VWS V14.01,2013-02-01 08:10:00,
2013-02-01 03:12:00,33.1,25.0,30.09,South,180,0.0,0.0,72,0.00,,---,0.00,VWS V14.01,2013-02-01 08:12:00,
2013-02-01 03:15:00,33.6,26.6,30.09,South,180,0.0,0.0,75,0.00,,---,0.00,VWS V14.01,2013-02-01 08:15:00,
2013-02-01 03:17:00,32.7,24.7,30.09,South,180,0.0,0.0,72,0.00,,---,0.00,VWS V14.01,2013-02-01 08:17:00,
2013-02-01 03:20:00,33.1,26.0,30.09,South,180,0.0,0.0,75,0.00,,---,0.00,VWS V14.01,2013-02-01 08:20:00,
2013-02-01 03:22:00,33.1,25.0,30.09,South,180,0.0,0.0,72,0.00,,---,0.00,VWS V14.01,2013-02-01 08:22:00,
2013-02-01 03:25:00,32.9,25.9,30.09,South,180,0.0,0.0,75,0.00,,---,0.00,VWS V14.01,2013-02-01 08:25:00,
2013-02-01 03:27:00,32.9,25.2,30.06,South,180,0.0,0.0,73,0.00,,---,0.00,VWS V14.01,2013-02-01 08:27:00,
2013-02-01 03:30:00,32.9,25.9,30.09,South,180,0.0,0.0,75,0.00,,---,0.00,VWS V14.01,2013-02-01 08:30:00,
2013-02-01 03:32:00,32.7,25.0,30.06,South,180,0.0,0.0,73,0.00,,---,0.00,VWS V14.01,2013-02-01 08:32:00,
2013-02-01 03:35:00,32.5,25.5,30.09,South,180,0.0,0.0,75,0.00,,---,0.00,VWS V14.01,2013-02-01 08:35:00,
2013-02-01 03:37:00,33.4,25.7,30.06,South,180,0.0,0.0,73,0.00,,---,0.00,VWS V14.01,2013-02-01 08:37:00,
2013-02-01 03:40:00,32.4,25.3,30.09,South,180,0.0,0.0,75,0.00,,---,0.00,VWS V14.01,2013-02-01 08:40:00,
2013-02-01 03:42:00,33.3,25.6,30.06,South,180,0.0,0.0,73,0.00,,---,0.00,VWS V14.01,2013-02-01 08:42:00,
2013-02-01 03:45:00,32.5,25.8,30.09,South,180,0.0,0.0,76,0.00,,---,0.00,VWS V14.01,2013-02-01 08:45:00,
2013-02-01 03:47:00,32.7,25.0,30.06,South,180,0.0,0.0,73,0.00,,---,0.00,VWS V14.01,2013-02-01 08:47:00,
2013-02-01 03:50:00,32.5,25.8,30.09,South,180,0.0,0.0,76,0.00,,---,0.00,VWS V14.01,2013-02-01 08:50:00,
2013-02-01 03:52:00,33.1,25.7,30.06,South,180,0.0,0.0,74,0.00,,---,0.00,VWS V14.01,2013-02-01 08:52:00,
2013-02-01 03:55:00,32.5,25.8,30.09,South,180,0.0,0.0,76,0.00,,---,0.00,VWS V14.01,2013-02-01 08:55:00,
2013-02-01 03:57:00,33.6,26.6,30.06,South,180,0.0,0.0,75,0.00,,---,0.00,VWS V14.01,2013-02-01 08:57:00,
2013-02-01 04:00:00,32.5,25.8,30.09,South,180,0.0,0.0,76,0.00,,---,0.00,VWS V14.01,2013-02-01 09:00:00,
2013-02-01 04:02:00,32.9,25.5,30.06,South,180,0.0,0.0,74,0.00,,---,0.00,VWS V14.01,2013-02-01 09:02:00,
2013-02-01 04:05:00,32.7,26.0,30.09,South,180,0.0,0.0,76,0.00,,---,0.00,VWS V14.01,2013-02-01 09:05:00,
2013-02-01 04:07:00,33.3,25.9,30.06,South,180,0.0,0.0,74,0.00,,---,0.00,VWS V14.01,2013-02-01 09:07:00,
2013-02-01 04:10:00,32.9,26.2,30.09,South,180,0.0,0.0,76,0.00,,---,0.00,VWS V14.01,2013-02-01 09:10:00,
2013-02-01 04:12:00,33.3,25.9,30.09,South,180,0.0,0.0,74,0.00,,---,0.00,VWS V14.01,2013-02-01 09:12:00,
2013-02-01 04:15:00,32.4,25.6,30.06,South,180,0.0,0.0,76,0.00,,---,0.00,VWS V14.01,2013-02-01 09:15:00,
2013-02-01 04:17:00,33.4,26.4,30.09,South,180,0.0,0.0,75,0.00,,---,0.00,VWS V14.01,2013-02-01 09:17:00,
2013-02-01 04:20:00,32.7,26.0,30.06,South,180,0.0,0.0,76,0.00,,---,0.00,VWS V14.01,2013-02-01 09:20:00,
2013-02-01 04:22:00,33.1,26.0,30.09,South,180,0.0,0.0,75,0.00,,---,0.00,VWS V14.01,2013-02-01 09:22:00,
2013-02-01 04:25:00,33.3,26.8,30.06,South,180,0.0,0.0,77,0.00,,---,0.00,VWS V14.01,2013-02-01 09:25:00,
2013-02-01 04:27:00,32.9,25.9,30.09,South,180,0.0,0.0,75,0.00,,---,0.00,VWS V14.01,2013-02-01 09:27:00,
2013-02-01 04:30:00,33.3,26.8,30.09,South,180,0.0,0.0,77,0.00,,---,0.00,VWS V14.01,2013-02-01 09:30:00,
2013-02-01 04:32:00,33.1,26.0,30.09,South,180,0.0,0.0,75,0.00,,---,0.00,VWS V14.01,2013-02-01 09:32:00,
2013-02-01 04:35:00,32.9,26.2,30.09,South,180,0.0,0.0,76,0.00,,---,0.00,VWS V14.01,2013-02-01 09:35:00,
2013-02-01 04:37:00,32.5,25.5,30.09,South,180,0.0,0.0,75,0.00,,---,0.00,VWS V14.01,2013-02-01 09:37:00,
2013-02-01 04:40:00,32.5,25.8,30.09,South,180,0.0,0.0,76,0.00,,---,0.00,VWS V14.01,2013-02-01 09:40:00,
2013-02-01 04:42:00,32.4,25.3,30.09,South,180,0.0,0.0,75,0.00,,---,0.00,VWS V14.01,2013-02-01 09:42:00,
2013-02-01 04:45:00,32.7,26.0,30.09,South,180,0.0,0.0,76,0.00,,---,0.00,VWS V14.01,2013-02-01 09:45:00,
2013-02-01 04:47:00,32.7,26.0,30.09,South,180,0.0,0.0,76,0.00,,---,0.00,VWS V14.01,2013-02-01 09:47:00,
2013-02-01 04:50:00,32.7,26.0,30.09,South,180,0.0,0.0,76,0.00,,---,0.00,VWS V14.01,2013-02-01 09:50:00,
2013-02-01 04:52:00,32.5,25.8,30.09,South,180,0.0,0.0,76,0.00,,---,0.00,VWS V14.01,2013-02-01 09:52:00,
2013-02-01 04:55:00,32.5,25.8,30.09,South,180,0.0,0.0,76,0.00,,---,0.00,VWS V14.01,2013-02-01 09:55:00,
2013-02-01 04:57:00,32.7,26.0,30.09,South,180,0.0,0.0,76,0.00,,---,0.00,VWS V14.01,2013-02-01 09:57:00,
2013-02-01 05:00:00,32.5,25.8,30.12,South,180,0.0,0.0,76,0.00,,---,0.00,VWS V14.01,2013-02-01 10:00:00,
2013-02-01 05:02:00,32.5,25.8,30.09,South,180,0.0,0.0,76,0.00,,---,0.00,VWS V14.01,2013-02-01 10:02:00,
2013-02-01 05:05:00,32.5,25.8,30.12,South,180,0.0,0.0,76,0.00,,---,0.00,VWS V14.01,2013-02-01 10:05:00,
2013-02-01 05:07:00,32.9,26.2,30.09,South,180,0.0,0.0,76,0.00,,---,0.00,VWS V14.01,2013-02-01 10:07:00,
2013-02-01 05:10:00,31.8,25.1,30.12,South,180,0.0,0.0,76,0.00,,---,0.00,VWS V14.01,2013-02-01 10:10:00,
2013-02-01 05:12:00,32.7,26.0,30.06,South,180,0.0,0.0,76,0.00,,---,0.00,VWS V14.01,2013-02-01 10:12:00,
2013-02-01 05:15:00,31.6,25.0,30.12,South,180,0.0,0.0,76,0.00,,---,0.00,VWS V14.01,2013-02-01 10:15:00,
2013-02-01 05:17:00,32.4,25.6,30.06,South,180,0.0,0.0,76,0.00,,---,0.00,VWS V14.01,2013-02-01 10:17:00,
2013-02-01 05:20:00,31.8,25.1,30.12,South,180,0.0,0.0,76,0.00,,---,0.00,VWS V14.01,2013-02-01 10:20:00,
2013-02-01 05:22:00,32.9,26.5,30.06,South,180,0.0,0.0,77,0.00,,---,0.00,VWS V14.01,2013-02-01 10:22:00,
2013-02-01 05:25:00,31.3,24.6,30.12,South,180,0.0,0.0,76,0.00,,---,0.00,VWS V14.01,2013-02-01 10:25:00,
2013-02-01 05:27:00,33.4,27.0,30.09,South,180,0.0,0.0,77,0.00,,---,0.00,VWS V14.01,2013-02-01 10:27:00,
2013-02-01 05:30:00,32.2,25.8,30.12,South,180,0.0,0.0,77,0.00,,---,0.00,VWS V14.01,2013-02-01 10:30:00,
2013-02-01 05:32:00,33.1,26.7,30.09,South,180,0.0,0.0,77,0.00,,---,0.00,VWS V14.01,2013-02-01 10:32:00,
2013-02-01 05:35:00,33.1,27.0,30.12,South,180,0.0,0.0,78,0.00,,---,0.00,VWS V14.01,2013-02-01 10:35:00,
2013-02-01 05:37:00,32.7,26.0,30.09,South,180,0.0,0.0,76,0.00,,---,0.00,VWS V14.01,2013-02-01 10:37:00,
2013-02-01 05:40:00,33.1,27.0,30.12,WSW,248,0.0,0.0,78,0.00,,---,0.00,VWS V14.01,2013-02-01 10:40:00,
2013-02-01 05:42:00,32.4,25.6,30.09,South,180,0.0,0.0,76,0.00,,---,0.00,VWS V14.01,2013-02-01 10:42:00,
2013-02-01 05:45:00,32.7,26.3,30.12,WSW,248,0.0,0.0,77,0.00,,---,0.00,VWS V14.01,2013-02-01 10:45:00,
2013-02-01 05:47:00,32.7,26.0,30.09,South,180,0.0,0.0,76,0.00,,---,0.00,VWS V14.01,2013-02-01 10:47:00,
2013-02-01 05:50:00,32.7,26.3,30.12,WSW,248,0.0,0.0,77,0.00,,---,0.00,VWS V14.01,2013-02-01 10:50:00,
2013-02-01 05:52:00,32.9,26.2,30.09,South,180,0.0,0.0,76,0.00,,---,0.00,VWS V14.01,2013-02-01 10:52:00,
2013-02-01 05:55:00,32.7,26.3,30.12,WSW,248,0.0,0.0,77,0.00,,---,0.00,VWS V14.01,2013-02-01 10:55:00,
2013-02-01 05:57:00,32.5,25.8,30.12,South,180,0.0,0.0,76,0.00,,---,0.00,VWS V14.01,2013-02-01 10:57:00,
2013-02-01 06:00:00,32.7,26.3,30.12,WSW,248,0.0,0.0,77,0.00,,---,0.00,VWS V14.01,2013-02-01 11:00:00,
2013-02-01 06:02:00,32.7,26.0,30.12,South,180,0.0,0.0,76,0.00,,---,0.00,VWS V14.01,2013-02-01 11:02:00,
2013-02-01 06:05:00,32.5,26.1,30.12,WSW,248,0.0,0.0,77,0.00,,---,0.00,VWS V14.01,2013-02-01 11:05:00,
2013-02-01 06:07:00,32.5,25.8,30.12,South,180,0.0,0.0,76,0.00,,---,0.00,VWS V14.01,2013-02-01 11:07:00,
2013-02-01 06:10:00,33.3,26.8,30.12,WSW,248,0.0,0.0,77,0.00,,---,0.00,VWS V14.01,2013-02-01 11:10:00,
2013-02-01 06:12:00,31.6,25.0,30.12,South,180,0.0,0.0,76,0.00,,---,0.00,VWS V14.01,2013-02-01 11:12:00,
2013-02-01 06:15:00,33.6,27.5,30.12,WSW,248,0.0,0.0,78,0.00,,---,0.00,VWS V14.01,2013-02-01 11:15:00,
2013-02-01 06:17:00,31.6,25.0,30.12,South,180,0.0,0.0,76,0.00,,---,0.00,VWS V14.01,2013-02-01 11:17:00,
2013-02-01 06:20:00,34.0,27.9,30.12,WSW,248,0.0,0.0,78,0.00,,---,0.00,VWS V14.01,2013-02-01 11:20:00,
2013-02-01 06:22:00,31.5,24.8,30.12,South,180,0.0,0.0,76,0.00,,---,0.00,VWS V14.01,2013-02-01 11:22:00,
2013-02-01 06:25:00,33.8,27.4,30.12,WSW,248,0.0,0.0,77,0.00,,---,0.00,VWS V14.01,2013-02-01 11:25:00,
2013-02-01 06:27:00,31.5,24.8,30.12,South,180,0.0,0.0,76,0.00,,---,0.00,VWS V14.01,2013-02-01 11:27:00,
2013-02-01 06:30:00,34.3,27.9,30.15,WSW,248,0.0,0.0,77,0.00,,---,0.00,VWS V14.01,2013-02-01 11:30:00,
2013-02-01 06:32:00,32.4,26.0,30.12,South,180,0.0,0.0,77,0.00,,---,0.00,VWS V14.01,2013-02-01 11:32:00,
2013-02-01 06:35:00,36.3,29.8,30.15,WSW,248,0.0,0.0,77,0.00,,---,0.00,VWS V14.01,2013-02-01 11:35:00,
2013-02-01 06:37:00,33.3,27.1,30.12,South,180,0.0,0.0,78,0.00,,---,0.00,VWS V14.01,2013-02-01 11:37:00,
2013-02-01 06:40:00,37.0,30.5,30.15,WSW,248,0.0,0.0,77,0.00,,---,0.00,VWS V14.01,2013-02-01 11:40:00,
2013-02-01 06:42:00,32.9,26.5,30.12,WSW,248,0.0,0.0,77,0.00,,---,0.00,VWS V14.01,2013-02-01 11:42:00,
2013-02-01 06:45:00,37.9,31.1,30.15,WSW,248,0.0,0.0,76,0.00,,---,0.00,VWS V14.01,2013-02-01 11:45:00,
2013-02-01 06:47:00,32.7,26.3,30.12,WSW,248,0.0,0.0,77,0.00,,---,0.00,VWS V14.01,2013-02-01 11:47:00,
2013-02-01 06:50:00,38.8,31.9,30.15,WSW,248,0.0,0.0,76,0.00,,---,0.00,VWS V14.01,2013-02-01 11:50:00,
2013-02-01 06:52:00,32.7,26.3,30.12,WSW,248,0.0,0.0,77,0.00,,---,0.00,VWS V14.01,2013-02-01 11:52:00,
2013-02-01 06:55:00,38.5,31.3,30.15,WSW,248,0.0,0.0,75,0.00,,---,0.00,VWS V14.01,2013-02-01 11:55:00,
2013-02-01 06:57:00,32.9,26.5,30.12,WSW,248,0.0,0.0,77,0.00,,---,0.00,VWS V14.01,2013-02-01 11:57:00,
2013-02-01 07:00:00,38.7,30.8,30.15,WSW,248,0.0,0.0,73,0.00,,---,0.00,VWS V14.01,2013-02-01 12:00:00,
2013-02-01 07:02:00,32.7,26.3,30.12,WSW,248,0.0,0.0,77,0.00,,---,0.00,VWS V14.01,2013-02-01 12:02:00,
2013-02-01 07:05:00,39.2,30.2,30.15,WSW,248,0.0,0.0,70,0.00,,---,0.00,VWS V14.01,2013-02-01 12:05:00,
2013-02-01 07:07:00,32.7,26.3,30.12,WSW,248,0.0,0.0,77,0.00,,---,0.00,VWS V14.01,2013-02-01 12:07:00,
2013-02-01 07:10:00,39.9,30.6,30.15,WSW,248,0.0,0.0,69,0.00,,---,0.00,VWS V14.01,2013-02-01 12:10:00,
2013-02-01 07:12:00,33.6,27.5,30.12,WSW,248,0.0,0.0,78,0.00,,---,0.00,VWS V14.01,2013-02-01 12:12:00,
2013-02-01 07:15:00,40.8,31.1,30.15,WSW,248,0.0,0.0,68,0.00,,---,0.00,VWS V14.01,2013-02-01 12:15:00,
2013-02-01 07:17:00,33.6,27.5,30.12,WSW,248,0.0,0.0,78,0.00,,---,0.00,VWS V14.01,2013-02-01 12:17:00,
2013-02-01 07:20:00,41.9,30.6,30.15,WSW,248,0.0,0.0,64,0.00,,---,0.00,VWS V14.01,2013-02-01 12:20:00,
2013-02-01 07:22:00,33.8,27.4,30.12,WSW,248,0.0,0.0,77,0.00,,---,0.00,VWS V14.01,2013-02-01 12:22:00,
2013-02-01 07:25:00,43.2,30.6,30.15,WSW,248,0.0,0.0,61,0.00,,---,0.00,VWS V14.01,2013-02-01 12:25:00,
2013-02-01 07:27:00,33.8,27.4,30.15,WSW,248,0.0,0.0,77,0.00,,---,0.00,VWS V14.01,2013-02-01 12:27:00,
2013-02-01 07:30:00,44.2,30.8,30.15,WSW,248,0.0,0.0,59,0.00,,---,0.00,VWS V14.01,2013-02-01 12:30:00,
2013-02-01 07:32:00,34.9,28.4,30.15,WSW,248,0.0,0.0,77,0.00,,---,0.00,VWS V14.01,2013-02-01 12:32:00,
2013-02-01 07:35:00,45.3,30.6,30.15,WSW,248,0.0,0.0,56,0.00,,---,0.00,VWS V14.01,2013-02-01 12:35:00,
2013-02-01 07:37:00,36.3,29.8,30.15,WSW,248,0.0,0.0,77,0.00,,---,0.00,VWS V14.01,2013-02-01 12:37:00,
2013-02-01 07:40:00,46.4,30.2,30.15,WSW,248,0.0,0.0,53,0.00,,---,0.00,VWS V14.01,2013-02-01 12:40:00,
2013-02-01 07:42:00,37.8,31.2,30.15,WSW,248,0.0,0.0,77,0.00,,---,0.00,VWS V14.01,2013-02-01 12:42:00,
2013-02-01 07:45:00,47.5,30.3,30.18,WSW,248,0.0,0.0,51,0.00,,---,0.00,VWS V14.01,2013-02-01 12:45:00,
2013-02-01 07:47:00,38.1,31.2,30.15,WSW,248,0.0,0.0,76,0.00,,---,0.00,VWS V14.01,2013-02-01 12:47:00,
2013-02-01 07:50:00,47.7,29.5,30.18,WSW,248,0.0,0.0,49,0.00,,---,0.00,VWS V14.01,2013-02-01 12:50:00,
2013-02-01 07:52:00,38.8,31.9,30.15,WSW,248,0.0,0.0,76,0.00,,---,0.00,VWS V14.01,2013-02-01 12:52:00,
2013-02-01 07:55:00,48.6,29.3,30.18,WSW,248,0.0,0.0,47,0.00,,---,0.00,VWS V14.01,2013-02-01 12:55:00,
2013-02-01 07:58:00,38.5,30.9,30.15,WSW,248,0.0,0.0,74,0.00,,---,0.00,VWS V14.01,2013-02-01 12:58:00,
2013-02-01 08:00:00,50.4,29.3,30.18,WSW,248,0.0,0.0,44,0.00,,---,0.00,VWS V14.01,2013-02-01 13:00:00,
2013-02-01 08:03:00,38.8,30.6,30.15,WSW,248,0.0,0.0,72,0.00,,---,0.00,VWS V14.01,2013-02-01 13:03:00,
2013-02-01 08:05:00,50.7,26.7,30.18,WSW,248,0.0,0.0,39,0.00,,---,0.00,VWS V14.01,2013-02-01 13:05:00,
2013-02-01 08:08:00,39.6,30.6,30.15,WSW,248,0.0,0.0,70,0.00,,---,0.00,VWS V14.01,2013-02-01 13:08:00,
2013-02-01 08:10:00,50.9,26.8,30.18,WSW,248,0.0,0.0,39,0.00,,---,0.00,VWS V14.01,2013-02-01 13:10:00,
2013-02-01 08:13:00,40.3,30.9,30.15,WSW,248,0.0,0.0,69,0.00,,---,0.00,VWS V14.01,2013-02-01 13:13:00,
2013-02-01 08:15:00,50.9,26.2,30.15,WSW,248,0.0,0.0,38,0.00,,---,0.00,VWS V14.01,2013-02-01 13:15:00,
2013-02-01 08:18:00,41.0,30.9,30.15,WSW,248,0.0,0.0,67,0.00,,---,0.00,VWS V14.01,2013-02-01 13:18:00,
2013-02-01 08:20:00,51.1,26.4,30.15,WSW,248,0.0,0.0,38,0.00,,---,0.00,VWS V14.01,2013-02-01 13:20:00,
2013-02-01 08:23:00,42.1,30.4,30.15,WSW,248,0.0,0.0,63,0.00,,---,0.00,VWS V14.01,2013-02-01 13:23:00,
2013-02-01 08:25:00,52.0,27.2,30.15,WSW,248,0.0,0.0,38,0.00,,---,0.00,VWS V14.01,2013-02-01 13:25:00,
2013-02-01 08:28:00,43.5,31.0,30.15,WSW,248,0.0,0.0,61,0.00,,---,0.00,VWS V14.01,2013-02-01 13:28:00,
2013-02-01 08:30:00,52.7,27.2,30.15,WSW,248,0.0,0.0,37,0.00,,---,0.00,VWS V14.01,2013-02-01 13:30:00,
2013-02-01 08:33:00,44.6,30.3,30.15,WSW,248,0.0,0.0,57,0.00,,---,0.00,VWS V14.01,2013-02-01 13:33:00,
2013-02-01 08:35:00,53.8,28.1,30.15,WSW,248,0.0,0.0,37,0.00,,---,0.00,VWS V14.01,2013-02-01 13:35:00,
2013-02-01 08:38:00,46.0,30.3,30.15,WSW,248,0.0,0.0,54,0.00,,---,0.00,VWS V14.01,2013-02-01 13:38:00,
2013-02-01 08:40:00,54.0,27.6,30.15,WSW,248,0.0,0.0,36,0.00,,---,0.00,VWS V14.01,2013-02-01 13:40:00,
2013-02-01 08:43:00,46.9,30.2,30.18,WSW,248,0.0,0.0,52,0.00,,---,0.00,VWS V14.01,2013-02-01 13:43:00,
2013-02-01 08:45:00,57.2,29.8,30.18,WSW,248,0.0,0.0,35,0.00,,---,0.00,VWS V14.01,2013-02-01 13:45:00,
2013-02-01 08:48:00,47.8,30.1,30.18,WSW,248,0.0,0.0,50,0.00,,---,0.00,VWS V14.01,2013-02-01 13:48:00,
2013-02-01 08:50:00,58.3,30.1,30.18,WSW,248,0.0,0.0,34,0.00,,---,0.00,VWS V14.01,2013-02-01 13:50:00,
2013-02-01 08:53:00,47.8,29.1,30.18,WSW,248,0.0,0.0,48,0.00,,---,0.00,VWS V14.01,2013-02-01 13:53:00,
2013-02-01 08:55:00,59.5,30.4,30.18,WSW,248,0.0,0.0,33,0.00,,---,0.00,VWS V14.01,2013-02-01 13:55:00,
2013-02-01 08:58:00,49.1,29.2,30.18,WSW,248,0.0,0.0,46,0.00,,---,0.00,VWS V14.01,2013-02-01 13:58:00,
2013-02-01 09:00:00,60.1,27.8,30.18,WSW,248,0.0,0.0,29,0.00,,---,0.00,VWS V14.01,2013-02-01 14:00:00,
2013-02-01 09:03:00,50.5,28.3,30.18,WSW,248,0.0,0.0,42,0.00,,---,0.00,VWS V14.01,2013-02-01 14:03:00,
2013-02-01 09:05:00,60.3,26.2,30.18,WSW,248,0.0,0.0,27,0.00,,---,0.00,VWS V14.01,2013-02-01 14:05:00,
2013-02-01 09:08:00,50.5,26.5,30.18,WSW,248,0.0,0.0,39,0.00,,---,0.00,VWS V14.01,2013-02-01 14:08:00,
2013-02-01 09:10:00,61.0,25.9,30.18,WSW,248,0.0,0.0,26,0.00,,---,0.00,VWS V14.01,2013-02-01 14:10:00,
2013-02-01 09:13:00,51.1,27.0,30.15,WSW,248,0.0,0.0,39,0.00,,---,0.00,VWS V14.01,2013-02-01 14:13:00,
2013-02-01 09:15:00,61.2,26.0,30.18,WSW,248,0.0,0.0,26,0.00,,---,0.00,VWS V14.01,2013-02-01 14:15:00,
2013-02-01 09:18:00,50.9,26.2,30.15,WSW,248,0.0,0.0,38,0.00,,---,0.00,VWS V14.01,2013-02-01 14:18:00,
2013-02-01 09:20:00,61.2,26.0,30.18,WSW,248,0.0,0.0,26,0.00,,---,0.00,VWS V14.01,2013-02-01 14:20:00,
2013-02-01 09:23:00,51.6,26.9,30.15,WSW,248,0.0,0.0,38,0.00,,---,0.00,VWS V14.01,2013-02-01 14:23:00,
2013-02-01 09:25:00,63.7,27.2,30.18,WSW,248,0.0,0.0,25,0.00,,---,0.00,VWS V14.01,2013-02-01 14:25:00,
2013-02-01 09:28:00,52.2,26.7,30.15,WSW,248,0.0,0.0,37,0.00,,---,0.00,VWS V14.01,2013-02-01 14:28:00,
2013-02-01 09:30:00,64.2,27.7,30.18,WSW,248,0.0,0.0,25,0.00,,---,0.00,VWS V14.01,2013-02-01 14:30:00,
2013-02-01 09:33:00,53.2,27.7,30.15,WSW,248,0.0,0.0,37,0.00,,---,0.00,VWS V14.01,2013-02-01 14:33:00,
2013-02-01 09:35:00,65.7,27.9,30.18,WSW,248,0.0,0.0,24,0.00,,---,0.00,VWS V14.01,2013-02-01 14:35:00,
2013-02-01 09:38:00,54.0,28.3,30.15,WSW,248,0.0,0.0,37,0.00,,---,0.00,VWS V14.01,2013-02-01 14:38:00,
2013-02-01 09:40:00,65.7,27.9,30.18,WSW,248,0.0,0.0,24,0.00,,---,0.00,VWS V14.01,2013-02-01 14:40:00,
2013-02-01 09:43:00,55.4,28.9,30.18,WSW,248,0.0,0.0,36,0.00,,---,0.00,VWS V14.01,2013-02-01 14:43:00,
2013-02-01 09:45:00,67.3,28.2,30.18,WSW,248,0.0,0.0,23,0.00,,---,0.00,VWS V14.01,2013-02-01 14:45:00,
2013-02-01 09:48:00,57.7,29.6,30.18,WSW,248,0.0,0.0,34,0.00,,---,0.00,VWS V14.01,2013-02-01 14:48:00,
2013-02-01 09:50:00,68.4,29.1,30.18,WSW,248,0.0,0.0,23,0.00,,---,0.00,VWS V14.01,2013-02-01 14:50:00,
2013-02-01 09:55:00,68.4,29.1,30.18,WSW,248,0.0,0.0,23,0.00,,---,0.00,VWS V14.01,2013-02-01 14:55:00,
2013-02-01 09:58:00,59.9,29.2,30.18,WSW,248,0.0,0.0,31,0.00,,---,0.00,VWS V14.01,2013-02-01 14:58:00,
2013-02-01 10:00:00,68.4,29.1,30.18,WSW,248,0.0,0.0,23,0.00,,---,0.00,VWS V14.01,2013-02-01 15:00:00,
2013-02-01 10:03:00,60.3,27.0,30.18,WSW,248,0.0,0.0,28,0.00,,---,0.00,VWS V14.01,2013-02-01 15:03:00,
2013-02-01 10:05:00,68.5,25.9,30.18,WSW,248,0.0,0.0,20,0.00,,---,0.00,VWS V14.01,2013-02-01 15:05:00,
2013-02-01 10:08:00,60.4,26.3,30.18,WSW,248,0.0,0.0,27,0.00,,---,0.00,VWS V14.01,2013-02-01 15:08:00,
2013-02-01 10:10:00,70.2,26.0,30.18,WSW,248,0.0,0.0,19,0.00,,---,0.00,VWS V14.01,2013-02-01 15:10:00,
2013-02-01 10:13:00,61.2,26.0,30.18,WSW,248,0.0,0.0,26,0.00,,---,0.00,VWS V14.01,2013-02-01 15:13:00,
2013-02-01 10:15:00,70.2,26.0,30.15,WSW,248,0.0,0.0,19,0.00,,---,0.00,VWS V14.01,2013-02-01 15:15:00,
2013-02-01 10:18:00,61.2,26.0,30.18,WSW,248,0.0,0.0,26,0.00,,---,0.00,VWS V14.01,2013-02-01 15:18:00,
2013-02-01 10:20:00,69.4,22.8,30.15,WSW,248,0.0,0.0,17,0.00,,---,0.00,VWS V14.01,2013-02-01 15:20:00,
2013-02-01 10:23:00,63.0,26.6,30.18,WSW,248,0.0,0.0,25,0.00,,---,0.00,VWS V14.01,2013-02-01 15:23:00,
2013-02-01 10:25:00,70.0,23.2,30.15,WSW,248,0.0,0.0,17,0.00,,---,0.00,VWS V14.01,2013-02-01 15:25:00,
2013-02-01 10:28:00,63.7,27.2,30.18,WSW,248,0.0,0.0,25,0.00,,---,0.00,VWS V14.01,2013-02-01 15:28:00,
2013-02-01 10:30:00,70.3,18.9,30.15,WSW,248,0.0,0.0,14,0.00,,---,0.00,VWS V14.01,2013-02-01 15:30:00,
2013-02-01 10:33:00,64.2,27.7,30.18,WSW,248,0.0,0.0,25,0.00,,---,0.00,VWS V14.01,2013-02-01 15:33:00,
2013-02-01 10:35:00,70.5,19.1,30.15,NNW,338,4.3,4.3,14,0.00,,---,0.00,VWS V14.01,2013-02-01 15:35:00,
2013-02-01 10:38:00,65.7,27.9,30.18,WSW,248,0.0,0.0,24,0.00,,---,0.00,VWS V14.01,2013-02-01 15:38:00,
2013-02-01 10:40:00,70.9,19.4,30.15,NNW,338,4.3,4.3,14,0.00,,---,0.00,VWS V14.01,2013-02-01 15:40:00,
2013-02-01 10:43:00,67.3,28.2,30.18,WSW,248,0.0,0.0,23,0.00,,---,0.00,VWS V14.01,2013-02-01 15:43:00,
2013-02-01 10:45:00,73.0,21.1,30.15,NNW,338,4.3,4.3,14,0.00,,---,0.00,VWS V14.01,2013-02-01 15:45:00,
2013-02-01 10:48:00,68.4,29.1,30.18,WSW,248,0.0,0.0,23,0.00,,---,0.00,VWS V14.01,2013-02-01 15:48:00,
2013-02-01 10:50:00,72.7,20.8,30.15,NNW,338,4.3,4.3,14,0.00,,---,0.00,VWS V14.01,2013-02-01 15:50:00,
2013-02-01 10:53:00,68.4,29.1,30.18,WSW,248,0.0,0.0,23,0.00,,---,0.00,VWS V14.01,2013-02-01 15:53:00,
2013-02-01 10:55:00,73.6,19.8,30.15,NNW,338,4.3,4.3,13,0.00,,---,0.00,VWS V14.01,2013-02-01 15:55:00,
2013-02-01 10:58:00,68.4,29.1,30.18,WSW,248,0.0,0.0,23,0.00,,---,0.00,VWS V14.01,2013-02-01 15:58:00,
2013-02-01 11:00:00,73.4,19.6,30.18,NNW,338,4.3,4.3,13,0.00,,---,0.00,VWS V14.01,2013-02-01 16:00:00,
2013-02-01 11:03:00,68.5,25.9,30.18,WSW,248,0.0,0.0,20,0.00,,---,0.00,VWS V14.01,2013-02-01 16:03:00,
2013-02-01 11:05:00,74.1,20.2,30.18,NNW,338,4.3,4.3,13,0.00,,---,0.00,VWS V14.01,2013-02-01 16:05:00,
2013-02-01 11:08:00,68.5,25.9,30.18,WSW,248,0.0,0.0,20,0.00,,---,0.00,VWS V14.01,2013-02-01 16:08:00,
2013-02-01 11:10:00,73.8,19.9,30.18,NNW,338,4.3,4.3,13,0.00,,---,0.00,VWS V14.01,2013-02-01 16:10:00,
2013-02-01 11:13:00,70.2,26.0,30.15,WSW,248,0.0,0.0,19,0.00,,---,0.00,VWS V14.01,2013-02-01 16:13:00,
2013-02-01 11:15:00,73.8,19.9,30.15,NNW,338,4.3,4.3,13,0.00,,---,0.00,VWS V14.01,2013-02-01 16:15:00,
2013-02-01 11:18:00,70.2,26.0,30.15,WSW,248,0.0,0.0,19,0.00,,---,0.00,VWS V14.01,2013-02-01 16:18:00,
2013-02-01 11:20:00,73.4,15.7,30.15,NNW,338,4.3,4.3,11,0.00,,---,0.00,VWS V14.01,2013-02-01 16:20:00,
2013-02-01 11:23:00,70.0,23.2,30.15,WSW,248,0.0,0.0,17,0.00,,---,0.00,VWS V14.01,2013-02-01 16:23:00,
2013-02-01 11:25:00,73.9,16.1,30.15,NNW,338,4.3,4.3,11,0.00,,---,0.00,VWS V14.01,2013-02-01 16:25:00,
2013-02-01 11:28:00,69.8,18.5,30.15,WSW,248,0.0,0.0,14,0.00,,---,0.00,VWS V14.01,2013-02-01 16:28:00,
2013-02-01 11:30:00,74.5,16.6,30.15,NNW,338,4.3,4.3,11,0.00,,---,0.00,VWS V14.01,2013-02-01 16:30:00,
2013-02-01 11:33:00,70.0,18.6,30.15,NNW,338,4.3,4.3,14,0.00,,---,0.00,VWS V14.01,2013-02-01 16:33:00,
2013-02-01 11:35:00,74.8,16.9,30.15,NNW,338,4.3,4.3,11,0.00,,---,0.00,VWS V14.01,2013-02-01 16:35:00,
2013-02-01 11:38:00,70.9,19.4,30.15,NNW,338,4.3,4.3,14,0.00,,---,0.00,VWS V14.01,2013-02-01 16:38:00,
2013-02-01 11:40:00,75.0,17.0,30.15,NNW,338,4.3,4.3,11,0.00,,---,0.00,VWS V14.01,2013-02-01 16:40:00,
2013-02-01 11:43:00,71.6,19.9,30.15,NNW,338,4.3,4.3,14,0.00,,---,0.00,VWS V14.01,2013-02-01 16:43:00,
2013-02-01 11:45:00,76.8,16.2,30.12,NNW,338,4.3,4.3,10,0.00,,---,0.00,VWS V14.01,2013-02-01 16:45:00,
2013-02-01 11:48:00,73.2,21.2,30.15,NNW,338,4.3,4.3,14,0.00,,---,0.00,VWS V14.01,2013-02-01 16:48:00,
2013-02-01 11:50:00,77.0,22.4,30.12,NNW,338,4.3,4.3,13,0.00,,---,0.00,VWS V14.01,2013-02-01 16:50:00,
2013-02-01 11:53:00,71.8,20.1,30.15,NNW,338,4.3,4.3,14,0.00,,---,0.00,VWS V14.01,2013-02-01 16:53:00,
2013-02-01 11:55:00,74.7,16.7,30.12,NNW,338,4.3,4.3,11,0.00,,---,0.00,VWS V14.01,2013-02-01 16:55:00,
2013-02-01 11:58:00,73.0,21.1,30.18,NNW,338,4.3,4.3,14,0.00,,---,0.00,VWS V14.01,2013-02-01 16:58:00,
2013-02-01 12:00:00,72.0,14.6,30.12,NNW,338,4.3,4.3,11,0.00,,---,0.00,VWS V14.01,2013-02-01 17:00:00,
2013-02-01 12:03:00,74.1,20.2,30.18,NNW,338,4.3,4.3,13,0.00,,---,0.00,VWS V14.01,2013-02-01 17:03:00,
2013-02-01 12:05:00,73.6,15.9,30.12,NNW,338,4.3,4.3,11,0.00,,---,0.00,VWS V14.01,2013-02-01 17:05:00,
2013-02-01 12:08:00,73.0,15.5,30.18,NNW,338,4.3,4.3,11,0.00,,---,0.00,VWS V14.01,2013-02-01 17:08:00,
2013-02-01 12:10:00,73.0,15.5,30.12,NNW,338,4.3,4.3,11,0.00,,---,0.00,VWS V14.01,2013-02-01 17:10:00,
2013-02-01 12:13:00,73.8,19.9,30.15,NNW,338,4.3,4.3,13,0.00,,---,0.00,VWS V14.01,2013-02-01 17:13:00,
2013-02-01 12:15:00,71.2,16.1,30.12,NNW,338,4.3,4.3,12,0.00,,---,0.00,VWS V14.01,2013-02-01 17:15:00,
2013-02-01 12:18:00,73.2,15.6,30.15,NNW,338,4.3,4.3,11,0.00,,---,0.00,VWS V14.01,2013-02-01 17:18:00,
2013-02-01 12:20:00,70.3,15.4,30.12,NNW,338,4.3,4.3,12,0.00,,---,0.00,VWS V14.01,2013-02-01 17:20:00,
2013-02-01 12:23:00,73.9,16.1,30.15,NNW,338,4.3,4.3,11,0.00,,---,0.00,VWS V14.01,2013-02-01 17:23:00,
2013-02-01 12:25:00,69.8,14.9,30.12,NNW,338,4.3,4.3,12,0.00,,---,0.00,VWS V14.01,2013-02-01 17:25:00,
2013-02-01 12:28:00,74.8,16.9,30.15,NNW,338,4.3,4.3,11,0.00,,---,0.00,VWS V14.01,2013-02-01 17:28:00,
2013-02-01 12:30:00,69.8,14.9,30.12,NNW,338,4.3,4.3,12,0.00,,---,0.00,VWS V14.01,2013-02-01 17:30:00,
2013-02-01 12:33:00,74.7,16.7,30.15,NNW,338,4.3,4.3,11,0.00,,---,0.00,VWS V14.01,2013-02-01 17:33:00,
2013-02-01 12:35:00,69.4,14.6,30.12,NNW,338,4.3,4.3,12,0.00,,---,0.00,VWS V14.01,2013-02-01 17:35:00,
2013-02-01 12:38:00,74.5,16.6,30.15,NNW,338,4.3,4.3,11,0.00,,---,0.00,VWS V14.01,2013-02-01 17:38:00,
2013-02-01 12:40:00,68.2,13.7,30.12,NNW,338,4.3,4.3,12,0.00,,---,0.00,VWS V14.01,2013-02-01 17:40:00,
2013-02-01 12:43:00,75.4,15.1,30.12,NNW,338,4.3,4.3,10,0.00,,---,0.00,VWS V14.01,2013-02-01 17:43:00,
2013-02-01 12:45:00,68.9,14.2,30.12,NNW,338,4.3,4.3,12,0.00,,---,0.00,VWS V14.01,2013-02-01 17:45:00,
2013-02-01 12:48:00,77.2,16.5,30.12,NNW,338,4.3,4.3,10,0.00,,---,0.00,VWS V14.01,2013-02-01 17:48:00,
2013-02-01 12:50:00,68.4,13.8,30.12,NNW,338,4.3,4.3,12,0.00,,---,0.00,VWS V14.01,2013-02-01 17:50:00,
2013-02-01 12:53:00,76.3,15.8,30.12,NNW,338,4.3,4.3,10,0.00,,---,0.00,VWS V14.01,2013-02-01 17:53:00,
2013-02-01 12:55:00,68.0,13.5,30.12,NNW,338,4.3,4.3,12,0.00,,---,0.00,VWS V14.01,2013-02-01 17:55:00,
2013-02-01 12:58:00,72.9,15.3,30.12,NNW,338,4.3,4.3,11,0.00,,---,0.00,VWS V14.01,2013-02-01 17:58:00,
2013-02-01 13:00:00,67.6,13.2,30.09,NNW,338,4.3,4.3,12,0.00,,---,0.00,VWS V14.01,2013-02-01 18:00:00,
2013-02-01 13:03:00,72.7,15.2,30.12,NNW,338,4.3,4.3,11,0.00,,---,0.00,VWS V14.01,2013-02-01 18:03:00,
2013-02-01 13:05:00,67.6,13.2,30.09,NNW,338,4.3,4.3,12,0.00,,---,0.00,VWS V14.01,2013-02-01 18:05:00,
2013-02-01 13:08:00,73.8,16.0,30.12,NNW,338,4.3,4.3,11,0.00,,---,0.00,VWS V14.01,2013-02-01 18:08:00,
2013-02-01 13:10:00,67.1,12.8,30.09,NNW,338,4.3,4.3,12,0.00,,---,0.00,VWS V14.01,2013-02-01 18:10:00,
2013-02-01 13:13:00,72.9,15.3,30.12,NNW,338,4.3,4.3,11,0.00,,---,0.00,VWS V14.01,2013-02-01 18:13:00,
2013-02-01 13:15:00,66.6,12.4,30.09,NNW,338,4.3,4.3,12,0.00,,---,0.00,VWS V14.01,2013-02-01 18:15:00,
2013-02-01 13:18:00,70.0,15.1,30.12,NNW,338,4.3,4.3,12,0.00,,---,0.00,VWS V14.01,2013-02-01 18:18:00,
2013-02-01 13:20:00,66.0,13.8,30.09,NNW,338,4.3,4.3,13,0.00,,---,0.00,VWS V14.01,2013-02-01 18:20:00,
2013-02-01 13:23:00,70.2,15.2,30.12,NNW,338,4.3,4.3,12,0.00,,---,0.00,VWS V14.01,2013-02-01 18:23:00,
2013-02-01 13:25:00,66.4,12.3,30.09,NNW,338,4.3,4.3,12,0.00,,---,0.00,VWS V14.01,2013-02-01 18:25:00,
2013-02-01 13:28:00,70.0,15.1,30.12,NNW,338,4.3,4.3,12,0.00,,---,0.00,VWS V14.01,2013-02-01 18:28:00,
2013-02-01 13:30:00,66.6,12.4,30.09,NNW,338,4.3,4.3,12,0.00,,---,0.00,VWS V14.01,2013-02-01 18:30:00,
2013-02-01 13:33:00,69.8,14.9,30.12,NNW,338,4.3,4.3,12,0.00,,---,0.00,VWS V14.01,2013-02-01 18:33:00,
2013-02-01 13:35:00,66.4,12.3,30.09,NNW,338,4.3,4.3,12,0.00,,---,0.00,VWS V14.01,2013-02-01 18:35:00,
2013-02-01 13:38:00,68.7,14.1,30.12,NNW,338,4.3,4.3,12,0.00,,---,0.00,VWS V14.01,2013-02-01 18:38:00,
2013-02-01 13:40:00,66.6,12.4,30.09,NNW,338,4.3,4.3,12,0.00,,---,0.00,VWS V14.01,2013-02-01 18:40:00,
2013-02-01 13:43:00,68.5,13.9,30.12,NNW,338,4.3,4.3,12,0.00,,---,0.00,VWS V14.01,2013-02-01 18:43:00,
2013-02-01 13:45:00,67.6,13.2,30.09,NNW,338,4.3,4.3,12,0.00,,---,0.00,VWS V14.01,2013-02-01 18:45:00,
2013-02-01 13:48:00,68.4,13.8,30.12,NNW,338,4.3,4.3,12,0.00,,---,0.00,VWS V14.01,2013-02-01 18:48:00,
2013-02-01 13:50:00,68.0,13.5,30.09,NNW,338,4.3,4.3,12,0.00,,---,0.00,VWS V14.01,2013-02-01 18:50:00,
2013-02-01 13:53:00,68.4,13.8,30.12,NNW,338,4.3,4.3,12,0.00,,---,0.00,VWS V14.01,2013-02-01 18:53:00,
2013-02-01 13:55:00,68.5,13.9,30.09,NNW,338,4.3,4.3,12,0.00,,---,0.00,VWS V14.01,2013-02-01 18:55:00,
2013-02-01 13:58:00,67.8,13.4,30.09,NNW,338,4.3,4.3,12,0.00,,---,0.00,VWS V14.01,2013-02-01 18:58:00,
2013-02-01 14:00:00,69.3,14.5,30.09,NNW,338,4.3,4.3,12,0.00,,---,0.00,VWS V14.01,2013-02-01 19:00:00,
2013-02-01 14:03:00,67.6,13.2,30.09,NNW,338,4.3,4.3,12,0.00,,---,0.00,VWS V14.01,2013-02-01 19:03:00,
2013-02-01 14:05:00,69.3,14.5,30.09,NNW,338,4.3,4.3,12,0.00,,---,0.00,VWS V14.01,2013-02-01 19:05:00,
2013-02-01 14:08:00,67.5,13.1,30.09,NNW,338,4.3,4.3,12,0.00,,---,0.00,VWS V14.01,2013-02-01 19:08:00,
2013-02-01 14:10:00,68.9,14.2,30.09,NNW,338,4.3,4.3,12,0.00,,---,0.00,VWS V14.01,2013-02-01 19:10:00,
2013-02-01 14:13:00,66.7,12.5,30.09,NNW,338,4.3,4.3,12,0.00,,---,0.00,VWS V14.01,2013-02-01 19:13:00,
2013-02-01 14:15:00,68.4,13.8,30.09,NNW,338,4.3,4.3,12,0.00,,---,0.00,VWS V14.01,2013-02-01 19:15:00,
2013-02-01 14:19:00,66.6,12.4,30.09,NNW,338,4.3,4.3,12,0.00,,---,0.00,VWS V14.01,2013-02-01 19:19:00,
2013-02-01 14:20:00,68.2,13.7,30.09,NNW,338,4.3,4.3,12,0.00,,---,0.00,VWS V14.01,2013-02-01 19:20:00,
2013-02-01 14:24:00,66.2,12.1,30.09,NNW,338,4.3,4.3,12,0.00,,---,0.00,VWS V14.01,2013-02-01 19:24:00,
2013-02-01 14:25:00,68.2,13.7,30.09,NNW,338,4.3,4.3,12,0.00,,---,0.00,VWS V14.01,2013-02-01 19:25:00,
2013-02-01 14:29:00,66.4,12.3,30.09,NNW,338,4.3,4.3,12,0.00,,---,0.00,VWS V14.01,2013-02-01 19:29:00,
2013-02-01 14:30:00,67.8,13.4,30.06,NNW,338,4.3,4.3,12,0.00,,---,0.00,VWS V14.01,2013-02-01 19:30:00,
2013-02-01 14:34:00,66.6,12.4,30.09,NNW,338,4.3,4.3,12,0.00,,---,0.00,VWS V14.01,2013-02-01 19:34:00,
2013-02-01 14:35:00,68.7,14.1,30.06,NNW,338,4.3,4.3,12,0.00,,---,0.00,VWS V14.01,2013-02-01 19:35:00,
2013-02-01 14:39:00,66.2,12.1,30.09,NNW,338,4.3,4.3,12,0.00,,---,0.00,VWS V14.01,2013-02-01 19:39:00,
2013-02-01 14:40:00,68.5,13.9,30.06,NNW,338,4.3,4.3,12,0.00,,---,0.00,VWS V14.01,2013-02-01 19:40:00,
2013-02-01 14:44:00,66.9,12.7,30.09,NNW,338,4.3,4.3,12,0.00,,---,0.00,VWS V14.01,2013-02-01 19:44:00,
2013-02-01 14:45:00,68.9,14.2,30.09,NNW,338,4.3,4.3,12,0.00,,---,0.00,VWS V14.01,2013-02-01 19:45:00,
2013-02-01 14:49:00,67.8,13.4,30.09,NNW,338,4.3,4.3,12,0.00,,---,0.00,VWS V14.01,2013-02-01 19:49:00,
2013-02-01 14:50:00,68.9,14.2,30.09,NNW,338,4.3,4.3,12,0.00,,---,0.00,VWS V14.01,2013-02-01 19:50:00,
2013-02-01 14:54:00,68.2,13.7,30.09,NNW,338,4.3,4.3,12,0.00,,---,0.00,VWS V14.01,2013-02-01 19:54:00,
2013-02-01 14:55:00,69.3,14.5,30.09,NNW,338,4.3,4.3,12,0.00,,---,0.00,VWS V14.01,2013-02-01 19:55:00,
2013-02-01 14:59:00,69.4,14.6,30.09,NNW,338,4.3,4.3,12,0.00,,---,0.00,VWS V14.01,2013-02-01 19:59:00,
2013-02-01 15:00:00,68.7,14.1,30.06,NNW,338,4.3,4.3,12,0.00,,---,0.00,VWS V14.01,2013-02-01 20:00:00,
2013-02-01 15:04:00,69.3,14.5,30.09,NNW,338,4.3,4.3,12,0.00,,---,0.00,VWS V14.01,2013-02-01 20:04:00,
2013-02-01 15:05:00,68.5,13.9,30.06,NNW,338,4.3,4.3,12,0.00,,---,0.00,VWS V14.01,2013-02-01 20:05:00,
2013-02-01 15:09:00,69.1,14.4,30.09,NNW,338,4.3,4.3,12,0.00,,---,0.00,VWS V14.01,2013-02-01 20:09:00,
2013-02-01 15:10:00,68.2,13.7,30.06,NNW,338,4.3,4.3,12,0.00,,---,0.00,VWS V14.01,2013-02-01 20:10:00,
2013-02-01 15:14:00,68.5,13.9,30.09,NNW,338,4.3,4.3,12,0.00,,---,0.00,VWS V14.01,2013-02-01 20:14:00,
2013-02-01 15:15:00,68.2,13.7,30.06,NNW,338,4.3,4.3,12,0.00,,---,0.00,VWS V14.01,2013-02-01 20:15:00,
2013-02-01 15:19:00,68.4,13.8,30.09,NNW,338,4.3,4.3,12,0.00,,---,0.00,VWS V14.01,2013-02-01 20:19:00,
2013-02-01 15:20:00,68.0,13.5,30.06,NNW,338,4.3,4.3,12,0.00,,---,0.00,VWS V14.01,2013-02-01 20:20:00,
2013-02-01 15:24:00,68.2,13.7,30.09,NNW,338,4.3,4.3,12,0.00,,---,0.00,VWS V14.01,2013-02-01 20:24:00,
2013-02-01 15:25:00,67.6,13.2,30.06,NNW,338,4.3,4.3,12,0.00,,---,0.00,VWS V14.01,2013-02-01 20:25:00,
2013-02-01 15:29:00,67.8,13.4,30.06,NNW,338,4.3,4.3,12,0.00,,---,0.00,VWS V14.01,2013-02-01 20:29:00,
2013-02-01 15:30:00,67.1,12.8,30.09,NNW,338,4.3,4.3,12,0.00,,---,0.00,VWS V14.01,2013-02-01 20:30:00,
2013-02-01 15:34:00,68.2,13.7,30.06,NNW,338,4.3,4.3,12,0.00,,---,0.00,VWS V14.01,2013-02-01 20:34:00,
2013-02-01 15:35:00,66.9,12.7,30.09,NNW,338,4.3,4.3,12,0.00,,---,0.00,VWS V14.01,2013-02-01 20:35:00,
2013-02-01 15:39:00,68.5,13.9,30.06,NNW,338,4.3,4.3,12,0.00,,---,0.00,VWS V14.01,2013-02-01 20:39:00,
2013-02-01 15:40:00,66.6,12.4,30.09,NNW,338,4.3,4.3,12,0.00,,---,0.00,VWS V14.01,2013-02-01 20:40:00,
2013-02-01 15:44:00,68.9,14.2,30.09,NNW,338,4.3,4.3,12,0.00,,---,0.00,VWS V14.01,2013-02-01 20:44:00,
2013-02-01 15:45:00,66.0,13.8,30.09,NNW,338,4.3,4.3,13,0.00,,---,0.00,VWS V14.01,2013-02-01 20:45:00,
2013-02-01 15:49:00,68.9,14.2,30.09,NNW,338,4.3,4.3,12,0.00,,---,0.00,VWS V14.01,2013-02-01 20:49:00,
2013-02-01 15:50:00,65.8,13.6,30.09,NNW,338,4.3,4.3,13,0.00,,---,0.00,VWS V14.01,2013-02-01 20:50:00,
2013-02-01 15:54:00,69.1,14.4,30.09,NNW,338,4.3,4.3,12,0.00,,---,0.00,VWS V14.01,2013-02-01 20:54:00,
2013-02-01 15:55:00,65.8,13.6,30.09,NNW,338,4.3,4.3,13,0.00,,---,0.00,VWS V14.01,2013-02-01 20:55:00,
2013-02-01 15:59:00,68.7,14.1,30.06,NNW,338,4.3,4.3,12,0.00,,---,0.00,VWS V14.01,2013-02-01 20:59:00,
2013-02-01 16:00:00,65.7,13.5,30.06,NNW,338,4.3,4.3,13,0.00,,---,0.00,VWS V14.01,2013-02-01 21:00:00,
2013-02-01 16:04:00,68.9,14.2,30.06,NNW,338,4.3,4.3,12,0.00,,---,0.00,VWS V14.01,2013-02-01 21:04:00,
2013-02-01 16:05:00,65.1,13.1,30.06,NNW,338,4.3,4.3,13,0.00,,---,0.00,VWS V14.01,2013-02-01 21:05:00,
2013-02-01 16:09:00,68.4,13.8,30.06,NNW,338,4.3,4.3,12,0.00,,---,0.00,VWS V14.01,2013-02-01 21:09:00,
2013-02-01 16:10:00,64.8,12.8,30.06,NNW,338,4.3,4.3,13,0.00,,---,0.00,VWS V14.01,2013-02-01 21:10:00,
2013-02-01 16:14:00,68.2,13.7,30.06,NNW,338,4.3,4.3,12,0.00,,---,0.00,VWS V14.01,2013-02-01 21:14:00,
2013-02-01 16:15:00,64.2,12.4,30.09,NNW,338,4.3,4.3,13,0.00,,---,0.00,VWS V14.01,2013-02-01 21:15:00,
2013-02-01 16:19:00,68.2,13.7,30.06,NNW,338,4.3,4.3,12,0.00,,---,0.00,VWS V14.01,2013-02-01 21:19:00,
2013-02-01 16:20:00,63.9,12.1,30.09,NNW,338,4.3,4.3,13,0.00,,---,0.00,VWS V14.01,2013-02-01 21:20:00,
2013-02-01 16:24:00,67.8,13.4,30.06,NNW,338,4.3,4.3,12,0.00,,---,0.00,VWS V14.01,2013-02-01 21:24:00,
2013-02-01 16:25:00,63.1,16.2,30.09,NNW,338,4.3,4.3,16,0.00,,---,0.00,VWS V14.01,2013-02-01 21:25:00,
2013-02-01 16:29:00,67.3,13.0,30.09,NNW,338,4.3,4.3,12,0.00,,---,0.00,VWS V14.01,2013-02-01 21:29:00,
2013-02-01 16:30:00,62.6,15.8,30.06,NNW,338,4.3,4.3,16,0.00,,---,0.00,VWS V14.01,2013-02-01 21:30:00,
2013-02-01 16:34:00,66.9,12.7,30.09,NNW,338,4.3,4.3,12,0.00,,---,0.00,VWS V14.01,2013-02-01 21:34:00,
2013-02-01 16:35:00,61.7,15.1,30.06,NNW,338,4.3,4.3,16,0.00,,---,0.00,VWS V14.01,2013-02-01 21:35:00,
2013-02-01 16:39:00,66.6,12.4,30.09,NNW,338,4.3,4.3,12,0.00,,---,0.00,VWS V14.01,2013-02-01 21:39:00,
2013-02-01 16:40:00,61.3,14.8,30.06,NNW,338,4.3,4.3,16,0.00,,---,0.00,VWS V14.01,2013-02-01 21:40:00,
2013-02-01 16:44:00,66.2,12.1,30.09,NNW,338,4.3,4.3,12,0.00,,---,0.00,VWS V14.01,2013-02-01 21:44:00,
2013-02-01 16:45:00,60.6,15.6,30.09,NNW,338,4.3,4.3,17,0.00,,---,0.00,VWS V14.01,2013-02-01 21:45:00,
2013-02-01 16:49:00,66.0,13.8,30.09,NNW,338,4.3,4.3,13,0.00,,---,0.00,VWS V14.01,2013-02-01 21:49:00,
2013-02-01 16:50:00,60.1,15.1,30.09,NNW,338,4.3,4.3,17,0.00,,---,0.00,VWS V14.01,2013-02-01 21:50:00,
2013-02-01 16:54:00,65.8,13.6,30.09,NNW,338,4.3,4.3,13,0.00,,---,0.00,VWS V14.01,2013-02-01 21:54:00,
2013-02-01 16:55:00,59.4,14.6,30.09,NNW,338,4.3,4.3,17,0.00,,---,0.00,VWS V14.01,2013-02-01 21:55:00,
2013-02-01 16:59:00,65.7,13.5,30.06,NNW,338,4.3,4.3,13,0.00,,---,0.00,VWS V14.01,2013-02-01 21:59:00,
2013-02-01 17:00:00,58.6,14.0,30.09,NNW,338,4.3,4.3,17,0.00,,---,0.00,VWS V14.01,2013-02-01 22:00:00,
2013-02-01 17:04:00,65.3,13.2,30.06,NNW,338,4.3,4.3,13,0.00,,---,0.00,VWS V14.01,2013-02-01 22:04:00,
2013-02-01 17:05:00,58.5,13.8,30.09,NNW,338,4.3,4.3,17,0.00,,---,0.00,VWS V14.01,2013-02-01 22:05:00,
2013-02-01 17:09:00,64.9,12.9,30.06,NNW,338,4.3,4.3,13,0.00,,---,0.00,VWS V14.01,2013-02-01 22:09:00,
2013-02-01 17:10:00,58.1,13.5,30.09,NNW,338,4.3,4.3,17,0.00,,---,0.00,VWS V14.01,2013-02-01 22:10:00,
2013-02-01 17:14:00,64.4,12.5,30.09,NNW,338,4.3,4.3,13,0.00,,---,0.00,VWS V14.01,2013-02-01 22:14:00,
2013-02-01 17:15:00,57.7,13.2,30.09,NNW,338,4.3,4.3,17,0.00,,---,0.00,VWS V14.01,2013-02-01 22:15:00,
2013-02-01 17:19:00,64.0,12.2,30.09,NNW,338,4.3,4.3,13,0.00,,---,0.00,VWS V14.01,2013-02-01 22:19:00,
2013-02-01 17:20:00,57.7,15.8,30.09,NNW,338,4.3,4.3,19,0.00,,---,0.00,VWS V14.01,2013-02-01 22:20:00,
2013-02-01 17:24:00,63.5,16.5,30.09,NNW,338,4.3,4.3,16,0.00,,---,0.00,VWS V14.01,2013-02-01 22:24:00,
2013-02-01 17:25:00,57.0,16.4,30.09,NNW,338,4.3,4.3,20,0.00,,---,0.00,VWS V14.01,2013-02-01 22:25:00,
2013-02-01 17:29:00,62.8,15.9,30.06,NNW,338,4.3,4.3,16,0.00,,---,0.00,VWS V14.01,2013-02-01 22:29:00,
2013-02-01 17:30:00,56.7,18.3,30.06,West,270,0.0,4.3,22,0.00,,---,0.00,VWS V14.01,2013-02-01 22:30:00,
2013-02-01 17:34:00,62.1,15.4,30.06,NNW,338,4.3,4.3,16,0.00,,---,0.00,VWS V14.01,2013-02-01 22:34:00,
2013-02-01 17:35:00,56.7,21.3,30.06,West,270,0.0,0.0,25,0.00,,---,0.00,VWS V14.01,2013-02-01 22:35:00,
2013-02-01 17:39:00,61.5,14.9,30.06,NNW,338,4.3,4.3,16,0.00,,---,0.00,VWS V14.01,2013-02-01 22:39:00,
2013-02-01 17:40:00,56.7,21.3,30.06,West,270,0.0,0.0,25,0.00,,---,0.00,VWS V14.01,2013-02-01 22:40:00,
2013-02-01 17:44:00,60.8,14.4,30.09,NNW,338,4.3,4.3,16,0.00,,---,0.00,VWS V14.01,2013-02-01 22:44:00,
2013-02-01 17:45:00,56.7,22.2,30.09,West,270,0.0,0.0,26,0.00,,---,0.00,VWS V14.01,2013-02-01 22:45:00,
2013-02-01 17:49:00,60.4,15.4,30.09,NNW,338,4.3,4.3,17,0.00,,---,0.00,VWS V14.01,2013-02-01 22:49:00,
2013-02-01 17:50:00,56.5,22.0,30.09,West,270,0.0,0.0,26,0.00,,---,0.00,VWS V14.01,2013-02-01 22:50:00,
2013-02-01 17:54:00,59.7,14.9,30.09,NNW,338,4.3,4.3,17,0.00,,---,0.00,VWS V14.01,2013-02-01 22:54:00,
2013-02-01 17:55:00,56.3,22.8,30.09,West,270,0.0,0.0,27,0.00,,---,0.00,VWS V14.01,2013-02-01 22:55:00,
2013-02-01 17:59:00,58.8,14.1,30.09,NNW,338,4.3,4.3,17,0.00,,---,0.00,VWS V14.01,2013-02-01 22:59:00,
2013-02-01 18:00:00,55.8,22.3,30.09,West,270,0.0,0.0,27,0.00,,---,0.00,VWS V14.01,2013-02-01 23:00:00,
2013-02-01 18:04:00,58.6,14.0,30.09,NNW,338,4.3,4.3,17,0.00,,---,0.00,VWS V14.01,2013-02-01 23:04:00,
2013-02-01 18:05:00,55.2,22.7,30.09,West,270,0.0,0.0,28,0.00,,---,0.00,VWS V14.01,2013-02-01 23:05:00,
2013-02-01 18:09:00,58.1,13.5,30.09,NNW,338,4.3,4.3,17,0.00,,---,0.00,VWS V14.01,2013-02-01 23:09:00,
2013-02-01 18:10:00,54.7,23.1,30.09,West,270,0.0,0.0,29,0.00,,---,0.00,VWS V14.01,2013-02-01 23:10:00,
2013-02-01 18:14:00,57.7,13.2,30.09,NNW,338,4.3,4.3,17,0.00,,---,0.00,VWS V14.01,2013-02-01 23:14:00,
2013-02-01 18:15:00,53.6,22.9,30.09,West,270,0.0,0.0,30,0.00,,---,0.00,VWS V14.01,2013-02-01 23:15:00,
2013-02-01 18:19:00,57.9,15.9,30.09,NNW,338,4.3,4.3,19,0.00,,---,0.00,VWS V14.01,2013-02-01 23:19:00,
2013-02-01 18:20:00,53.2,23.4,30.09,West,270,0.0,0.0,31,0.00,,---,0.00,VWS V14.01,2013-02-01 23:20:00,
2013-02-01 18:24:00,57.4,15.5,30.09,NNW,338,4.3,4.3,19,0.00,,---,0.00,VWS V14.01,2013-02-01 23:24:00,
2013-02-01 18:25:00,52.3,23.4,30.09,West,270,0.0,0.0,32,0.00,,---,0.00,VWS V14.01,2013-02-01 23:25:00,
2013-02-01 18:29:00,56.8,18.4,30.06,NNW,338,4.3,4.3,22,0.00,,---,0.00,VWS V14.01,2013-02-01 23:29:00,
2013-02-01 18:30:00,51.4,24.0,30.09,West,270,0.0,0.0,34,0.00,,---,0.00,VWS V14.01,2013-02-01 23:30:00,
2013-02-01 18:34:00,56.7,18.3,30.06,West,270,0.0,0.0,22,0.00,,---,0.00,VWS V14.01,2013-02-01 23:34:00,
2013-02-01 18:35:00,50.9,23.5,30.09,West,270,0.0,0.0,34,0.00,,---,0.00,VWS V14.01,2013-02-01 23:35:00,
2013-02-01 18:39:00,56.5,21.1,30.06,West,270,0.0,0.0,25,0.00,,---,0.00,VWS V14.01,2013-02-01 23:39:00,
2013-02-01 18:40:00,50.5,24.6,30.09,West,270,0.0,0.0,36,0.00,,---,0.00,VWS V14.01,2013-02-01 23:40:00,
2013-02-01 18:44:00,56.7,21.3,30.09,West,270,0.0,0.0,25,0.00,,---,0.00,VWS V14.01,2013-02-01 23:44:00,
2013-02-01 18:45:00,50.5,24.6,30.09,West,270,0.0,0.0,36,0.00,,---,0.00,VWS V14.01,2013-02-01 23:45:00,
2013-02-01 18:49:00,56.7,22.2,30.09,West,270,0.0,0.0,26,0.00,,---,0.00,VWS V14.01,2013-02-01 23:49:00,
2013-02-01 18:50:00,50.7,25.4,30.09,West,270,0.0,0.0,37,0.00,,---,0.00,VWS V14.01,2013-02-01 23:50:00,
2013-02-01 18:54:00,56.1,22.6,30.09,West,270,0.0,0.0,27,0.00,,---,0.00,VWS V14.01,2013-02-01 23:54:00,
2013-02-01 18:55:00,50.7,25.4,30.09,West,270,0.0,0.0,37,0.00,,---,0.00,VWS V14.01,2013-02-01 23:55:00,
2013-02-01 18:59:00,55.9,22.5,30.09,West,270,0.0,0.0,27,0.00,,---,0.00,VWS V14.01,2013-02-01 23:59:00,
2013-02-01 19:00:00,50.2,24.9,30.09,West,270,0.0,0.0,37,0.00,,---,0.00,VWS V14.01,2013-02-02 00:00:00,
2013-02-01 19:04:00,55.4,22.9,30.09,West,270,0.0,0.0,28,0.00,,---,0.00,VWS V14.01,2013-02-02 00:04:00,
2013-02-01 19:05:00,48.9,24.4,30.09,West,270,0.0,0.0,38,0.00,,---,0.00,VWS V14.01,2013-02-02 00:05:00,
2013-02-01 19:09:00,54.9,23.2,30.09,West,270,0.0,0.0,29,0.00,,---,0.00,VWS V14.01,2013-02-02 00:09:00,
2013-02-01 19:10:00,49.1,25.2,30.09,West,270,0.0,0.0,39,0.00,,---,0.00,VWS V14.01,2013-02-02 00:10:00,
2013-02-01 19:14:00,54.0,23.2,30.09,West,270,0.0,0.0,30,0.00,,---,0.00,VWS V14.01,2013-02-02 00:14:00,
2013-02-01 19:15:00,49.6,26.3,30.09,West,270,0.0,0.0,40,0.00,,---,0.00,VWS V14.01,2013-02-02 00:15:00,
2013-02-01 19:19:00,53.2,23.4,30.09,West,270,0.0,0.0,31,0.00,,---,0.00,VWS V14.01,2013-02-02 00:19:00,
2013-02-01 19:20:00,48.7,25.5,30.09,West,270,0.0,0.0,40,0.00,,---,0.00,VWS V14.01,2013-02-02 00:20:00,
2013-02-01 19:24:00,52.7,23.7,30.09,West,270,0.0,0.0,32,0.00,,---,0.00,VWS V14.01,2013-02-02 00:24:00,
2013-02-01 19:25:00,47.5,25.0,30.09,West,270,0.0,0.0,41,0.00,,---,0.00,VWS V14.01,2013-02-02 00:25:00,
2013-02-01 19:29:00,51.8,23.6,30.09,West,270,0.0,0.0,33,0.00,,---,0.00,VWS V14.01,2013-02-02 00:29:00,
2013-02-01 19:30:00,46.8,24.3,30.09,West,270,0.0,0.0,41,0.00,,---,0.00,VWS V14.01,2013-02-02 00:30:00,
2013-02-01 19:34:00,51.1,23.7,30.09,West,270,0.0,0.0,34,0.00,,---,0.00,VWS V14.01,2013-02-02 00:34:00,
2013-02-01 19:35:00,46.4,24.6,30.09,East,90,0.0,0.0,42,0.00,,---,0.00,VWS V14.01,2013-02-02 00:35:00,
2013-02-01 19:39:00,50.5,23.9,30.09,West,270,0.0,0.0,35,0.00,,---,0.00,VWS V14.01,2013-02-02 00:39:00,
2013-02-01 19:40:00,45.7,24.5,30.09,East,90,0.0,0.0,43,0.00,,---,0.00,VWS V14.01,2013-02-02 00:40:00,
2013-02-01 19:44:00,50.5,24.6,30.09,West,270,0.0,0.0,36,0.00,,---,0.00,VWS V14.01,2013-02-02 00:44:00,
2013-02-01 19:45:00,45.1,24.5,30.12,East,90,0.0,0.0,44,0.00,,---,0.00,VWS V14.01,2013-02-02 00:45:00,
2013-02-01 19:49:00,50.5,25.2,30.09,West,270,0.0,0.0,37,0.00,,---,0.00,VWS V14.01,2013-02-02 00:49:00,
2013-02-01 19:50:00,45.1,25.1,30.12,East,90,0.0,0.0,45,0.00,,---,0.00,VWS V14.01,2013-02-02 00:50:00,
2013-02-01 19:54:00,50.9,25.6,30.09,West,270,0.0,0.0,37,0.00,,---,0.00,VWS V14.01,2013-02-02 00:54:00,
2013-02-01 19:55:00,45.5,25.9,30.12,East,90,0.0,0.0,46,0.00,,---,0.00,VWS V14.01,2013-02-02 00:55:00,
2013-02-01 19:59:00,50.4,25.1,30.09,West,270,0.0,0.0,37,0.00,,---,0.00,VWS V14.01,2013-02-02 00:59:00,
2013-02-01 20:00:00,45.1,26.1,30.12,East,90,0.0,0.0,47,0.00,,---,0.00,VWS V14.01,2013-02-02 01:00:00,
2013-02-01 20:04:00,49.1,24.6,30.09,West,270,0.0,0.0,38,0.00,,---,0.00,VWS V14.01,2013-02-02 01:04:00,
2013-02-01 20:05:00,44.6,26.1,30.12,East,90,0.0,0.0,48,0.00,,---,0.00,VWS V14.01,2013-02-02 01:05:00,
2013-02-01 20:09:00,48.7,24.9,30.09,West,270,0.0,0.0,39,0.00,,---,0.00,VWS V14.01,2013-02-02 01:09:00,
2013-02-01 20:10:00,44.2,26.3,30.12,East,90,0.0,0.0,49,0.00,,---,0.00,VWS V14.01,2013-02-02 01:10:00,
2013-02-01 20:14:00,49.5,25.5,30.09,West,270,0.0,0.0,39,0.00,,---,0.00,VWS V14.01,2013-02-02 01:14:00,
2013-02-01 20:15:00,44.2,26.3,30.12,East,90,0.0,0.0,49,0.00,,---,0.00,VWS V14.01,2013-02-02 01:15:00,
2013-02-01 20:19:00,48.9,25.7,30.09,West,270,0.0,0.0,40,0.00,,---,0.00,VWS V14.01,2013-02-02 01:19:00,
2013-02-01 20:20:00,43.9,26.5,30.12,East,90,0.0,0.0,50,0.00,,---,0.00,VWS V14.01,2013-02-02 01:20:00,
2013-02-01 20:24:00,47.7,25.1,30.09,West,270,0.0,0.0,41,0.00,,---,0.00,VWS V14.01,2013-02-02 01:24:00,
2013-02-01 20:25:00,43.7,26.3,30.12,East,90,0.0,0.0,50,0.00,,---,0.00,VWS V14.01,2013-02-02 01:25:00,
2013-02-01 20:29:00,47.1,24.6,30.09,West,270,0.0,0.0,41,0.00,,---,0.00,VWS V14.01,2013-02-02 01:29:00,
2013-02-01 20:30:00,43.5,26.6,30.12,East,90,0.0,0.0,51,0.00,,---,0.00,VWS V14.01,2013-02-02 01:30:00,
2013-02-01 20:34:00,46.4,24.6,30.09,East,90,0.0,0.0,42,0.00,,---,0.00,VWS V14.01,2013-02-02 01:34:00,
2013-02-01 20:35:00,43.0,26.1,30.12,East,90,0.0,0.0,51,0.00,,---,0.00,VWS V14.01,2013-02-02 01:35:00,
2013-02-01 20:39:00,46.0,24.8,30.09,East,90,0.0,0.0,43,0.00,,---,0.00,VWS V14.01,2013-02-02 01:39:00,
2013-02-01 20:40:00,43.0,26.6,30.12,East,90,0.0,0.0,52,0.00,,---,0.00,VWS V14.01,2013-02-02 01:40:00,
2013-02-01 20:44:00,45.3,24.2,30.12,East,90,0.0,0.0,43,0.00,,---,0.00,VWS V14.01,2013-02-02 01:44:00,
2013-02-01 20:45:00,43.2,26.7,30.12,East,90,0.0,0.0,52,0.00,,---,0.00,VWS V14.01,2013-02-02 01:45:00,
2013-02-01 20:49:00,45.1,25.1,30.12,East,90,0.0,0.0,45,0.00,,---,0.00,VWS V14.01,2013-02-02 01:49:00,
2013-02-01 20:50:00,43.5,27.5,30.12,ESE,112,0.0,0.0,53,0.00,,---,0.00,VWS V14.01,2013-02-02 01:50:00,
2013-02-01 20:54:00,45.3,25.8,30.12,East,90,0.0,0.0,46,0.00,,---,0.00,VWS V14.01,2013-02-02 01:54:00,
2013-02-01 20:55:00,43.3,27.8,30.12,ESE,112,0.0,0.0,54,0.00,,---,0.00,VWS V14.01,2013-02-02 01:55:00,
2013-02-01 20:59:00,45.3,26.3,30.12,East,90,0.0,0.0,47,0.00,,---,0.00,VWS V14.01,2013-02-02 01:59:00,
2013-02-01 21:00:00,43.2,27.7,30.12,ESE,112,0.0,0.0,54,0.00,,---,0.00,VWS V14.01,2013-02-02 02:00:00,
2013-02-01 21:04:00,44.6,26.1,30.12,East,90,0.0,0.0,48,0.00,,---,0.00,VWS V14.01,2013-02-02 02:04:00,
2013-02-01 21:05:00,43.0,27.9,30.12,ESE,112,0.0,0.0,55,0.00,,---,0.00,VWS V14.01,2013-02-02 02:05:00,
2013-02-01 21:09:00,44.6,26.1,30.12,East,90,0.0,0.0,48,0.00,,---,0.00,VWS V14.01,2013-02-02 02:09:00,
2013-02-01 21:10:00,42.8,28.2,30.12,ESE,112,0.0,0.0,56,0.00,,---,0.00,VWS V14.01,2013-02-02 02:10:00,
2013-02-01 21:14:00,44.2,26.3,30.12,East,90,0.0,0.0,49,0.00,,---,0.00,VWS V14.01,2013-02-02 02:14:00,
2013-02-01 21:15:00,42.8,28.6,30.12,ESE,112,0.0,0.0,57,0.00,,---,0.00,VWS V14.01,2013-02-02 02:15:00,
2013-02-01 21:19:00,44.1,26.1,30.12,East,90,0.0,0.0,49,0.00,,---,0.00,VWS V14.01,2013-02-02 02:19:00,
2013-02-01 21:20:00,43.3,29.1,30.12,ESE,112,0.0,0.0,57,0.00,,---,0.00,VWS V14.01,2013-02-02 02:20:00,
2013-02-01 21:24:00,43.7,26.3,30.12,East,90,0.0,0.0,50,0.00,,---,0.00,VWS V14.01,2013-02-02 02:24:00,
2013-02-01 21:25:00,43.5,30.2,30.12,South,180,0.0,0.0,59,0.00,,---,0.00,VWS V14.01,2013-02-02 02:25:00,
2013-02-01 21:29:00,43.3,26.4,30.12,East,90,0.0,0.0,51,0.00,,---,0.00,VWS V14.01,2013-02-02 02:29:00,
2013-02-01 21:30:00,43.5,30.6,30.12,South,180,0.0,0.0,60,0.00,,---,0.00,VWS V14.01,2013-02-02 02:30:00,
2013-02-01 21:34:00,43.2,26.3,30.12,East,90,0.0,0.0,51,0.00,,---,0.00,VWS V14.01,2013-02-02 02:34:00,
2013-02-01 21:35:00,43.3,30.4,30.12,South,180,0.0,0.0,60,0.00,,---,0.00,VWS V14.01,2013-02-02 02:35:00,
2013-02-01 21:39:00,43.0,26.1,30.12,East,90,0.0,0.0,51,0.00,,---,0.00,VWS V14.01,2013-02-02 02:39:00,
2013-02-01 21:40:00,43.3,30.8,30.12,South,180,0.0,0.0,61,0.00,,---,0.00,VWS V14.01,2013-02-02 02:40:00,
2013-02-01 21:44:00,43.0,26.6,30.12,East,90,0.0,0.0,52,0.00,,---,0.00,VWS V14.01,2013-02-02 02:44:00,
2013-02-01 21:45:00,43.0,30.9,30.12,South,180,0.0,0.0,62,0.00,,---,0.00,VWS V14.01,2013-02-02 02:45:00,
2013-02-01 21:49:00,43.5,27.5,30.12,ESE,112,0.0,0.0,53,0.00,,---,0.00,VWS V14.01,2013-02-02 02:49:00,
2013-02-01 21:50:00,43.0,30.9,30.12,South,180,0.0,0.0,62,0.00,,---,0.00,VWS V14.01,2013-02-02 02:50:00,
2013-02-01 21:54:00,43.5,27.5,30.12,ESE,112,0.0,0.0,53,0.00,,---,0.00,VWS V14.01,2013-02-02 02:54:00,
2013-02-01 21:55:00,43.2,31.4,30.12,South,180,0.0,0.0,63,0.00,,---,0.00,VWS V14.01,2013-02-02 02:55:00,
2013-02-01 21:59:00,43.3,27.8,30.12,ESE,112,0.0,0.0,54,0.00,,---,0.00,VWS V14.01,2013-02-02 02:59:00,
2013-02-01 22:00:00,42.4,30.8,30.12,South,180,0.0,0.0,63,0.00,,---,0.00,VWS V14.01,2013-02-02 03:00:00,
2013-02-01 22:04:00,43.2,28.1,30.12,ESE,112,0.0,0.0,55,0.00,,---,0.00,VWS V14.01,2013-02-02 03:04:00,
2013-02-01 22:05:00,42.8,31.5,30.12,South,180,0.0,0.0,64,0.00,,---,0.00,VWS V14.01,2013-02-02 03:05:00,
2013-02-01 22:09:00,43.0,27.9,30.12,ESE,112,0.0,0.0,55,0.00,,---,0.00,VWS V14.01,2013-02-02 03:09:00,
2013-02-01 22:10:00,42.1,30.8,30.12,South,180,0.0,0.0,64,0.00,,---,0.00,VWS V14.01,2013-02-02 03:10:00,
2013-02-01 22:14:00,42.8,28.6,30.12,ESE,112,0.0,0.0,57,0.00,,---,0.00,VWS V14.01,2013-02-02 03:14:00,
2013-02-01 22:15:00,41.5,30.3,30.12,South,180,0.0,0.0,64,0.00,,---,0.00,VWS V14.01,2013-02-02 03:15:00,
2013-02-01 22:19:00,43.2,29.0,30.12,ESE,112,0.0,0.0,57,0.00,,---,0.00,VWS V14.01,2013-02-02 03:19:00,
2013-02-01 22:20:00,41.5,30.7,30.12,South,180,0.0,0.0,65,0.00,,---,0.00,VWS V14.01,2013-02-02 03:20:00,
2013-02-01 22:24:00,43.5,29.7,30.12,ESE,112,0.0,0.0,58,0.00,,---,0.00,VWS V14.01,2013-02-02 03:24:00,
2013-02-01 22:25:00,41.7,31.2,30.12,South,180,0.0,0.0,66,0.00,,---,0.00,VWS V14.01,2013-02-02 03:25:00,
2013-02-01 22:29:00,43.7,30.3,30.12,South,180,0.0,0.0,59,0.00,,---,0.00,VWS V14.01,2013-02-02 03:29:00,
2013-02-01 22:30:00,41.2,30.7,30.12,South,180,0.0,0.0,66,0.00,,---,0.00,VWS V14.01,2013-02-02 03:30:00,
2013-02-01 22:34:00,43.2,30.2,30.12,South,180,0.0,0.0,60,0.00,,---,0.00,VWS V14.01,2013-02-02 03:34:00,
2013-02-01 22:35:00,40.8,30.7,30.12,South,180,0.0,0.0,67,0.00,,---,0.00,VWS V14.01,2013-02-02 03:35:00,
2013-02-01 22:39:00,43.7,31.1,30.12,South,180,0.0,0.0,61,0.00,,---,0.00,VWS V14.01,2013-02-02 03:39:00,
2013-02-01 22:40:00,40.6,30.9,30.12,South,180,0.0,0.0,68,0.00,,---,0.00,VWS V14.01,2013-02-02 03:40:00,
2013-02-01 22:44:00,43.2,31.0,30.12,South,180,0.0,0.0,62,0.00,,---,0.00,VWS V14.01,2013-02-02 03:44:00,
2013-02-01 22:45:00,40.5,30.8,30.12,South,180,0.0,0.0,68,0.00,,---,0.00,VWS V14.01,2013-02-02 03:45:00,
2013-02-01 22:49:00,43.0,30.9,30.12,South,180,0.0,0.0,62,0.00,,---,0.00,VWS V14.01,2013-02-02 03:49:00,
2013-02-01 22:50:00,40.1,30.4,30.12,South,180,0.0,0.0,68,0.00,,---,0.00,VWS V14.01,2013-02-02 03:50:00,
2013-02-01 22:54:00,43.2,31.4,30.12,South,180,0.0,0.0,63,0.00,,---,0.00,VWS V14.01,2013-02-02 03:54:00,
2013-02-01 22:55:00,40.1,30.8,30.12,South,180,0.0,0.0,69,0.00,,---,0.00,VWS V14.01,2013-02-02 03:55:00,
2013-02-01 23:00:00,42.6,30.9,30.12,South,180,0.0,0.0,63,0.00,,---,0.00,VWS V14.01,2013-02-02 04:00:00,
2013-02-01 23:05:00,42.4,31.1,30.12,South,180,0.0,0.0,64,0.00,,---,0.00,VWS V14.01,2013-02-02 04:05:00,
2013-02-01 23:10:00,42.3,31.0,30.12,South,180,0.0,0.0,64,0.00,,---,0.00,VWS V14.01,2013-02-02 04:10:00,
2013-02-01 23:15:00,41.5,30.3,30.12,South,180,0.0,0.0,64,0.00,,---,0.00,VWS V14.01,2013-02-02 04:15:00,
2013-02-01 23:20:00,41.5,30.7,30.12,South,180,0.0,0.0,65,0.00,,---,0.00,VWS V14.01,2013-02-02 04:20:00,
2013-02-01 23:25:00,41.9,31.4,30.12,South,180,0.0,0.0,66,0.00,,---,0.00,VWS V14.01,2013-02-02 04:25:00,
2013-02-01 23:30:00,41.4,30.9,30.12,South,180,0.0,0.0,66,0.00,,---,0.00,VWS V14.01,2013-02-02 04:30:00,
2013-02-01 23:35:00,40.8,30.7,30.12,South,180,0.0,0.0,67,0.00,,---,0.00,VWS V14.01,2013-02-02 04:35:00,
2013-02-01 23:40:00,40.6,30.9,30.12,South,180,0.0,0.0,68,0.00,,---,0.00,VWS V14.01,2013-02-02 04:40:00,
2013-02-01 23:45:00,40.6,30.9,30.12,South,180,0.0,0.0,68,0.00,,---,0.00,VWS V14.01,2013-02-02 04:45:00,
2013-02-01 23:50:00,40.1,30.4,30.12,South,180,0.0,0.0,68,0.00,,---,0.00,VWS V14.01,2013-02-02 04:50:00,
2013-02-01 23:55:00,40.1,30.8,30.12,South,180,0.0,0.0,69,0.00,,---,0.00,VWS V14.01,2013-02-02 04:55:00,